Location: Bieg
(49.3499°N, 10.3835°E)
Time: 11:50:57
(UTC+00:00)

SL-16 R/B - Pass Details

Date: 23 May 2024
Orbit: 985 x 1007 km, 99.7° (Epoch: 24 June)

Event Time Altitude Azimuth Distance (km) Brightness Sun altitude
Rises 01:47:40 0° 163° (SSE) 3,720 5.2 -12.2°
Reaches altitude 10° 01:50:08 10° 164° (SSE) 2,776 4.5 -12.0°
Maximum altitude 01:56:25 85° 254° (WSW) 1,018 2.6 -11.4°
Drops below altitude 10° 02:02:43 10° 343° (NNW) 2,794 5.4 -10.7°
Sets 02:05:13 0° 344° (NNW) 3,747 6.1 -10.5°
